Weather in Nagor'ye

Russia / Belgorod Oblast     50°02′05″N   39°04′42″E
temp.,
°C
wind,
m/s
gust,
m/s
humid.,
%
clouds,
%
prec.,
mm/h
press.,
hPa
HPBL,
m
11 may, tue
tue1100:00+10ne61396100 0.9 1011801
03:00+8e3796100 3.5 1012433
06:00+7e4896100 5.6 1012461
09:00+8e71080100 6.1 10151250
12:00+11ene101364100 0.1 10161699
15:00+11ene11157059 0.5 10161581
18:00+7ene9168498 0.3 10181277
21:00+8e111987100 0.7 10181647
12 may, wed
wed1200:00+8ese91688100 0.8 10201280
03:00+7ene51092100 1.1 1020569
06:00+8e91686100 0.1 1020839
09:00+9e71384100 1.6 1019797
12:00+12se7117665 0.9 10181326
15:00+13sse597476 2.6 10171064
18:00+14sse597186 0.8 10161151
21:00+9sse3389100 0.9 101777
13 may, thu
thu1300:00+9ese239299 0.1 101672
03:00+10ese239575 0.3 101660
06:00+10ese289215 0.3 1016210
09:00+16sse46695 0.3 1015609
12:00+20sse465815 0.0 10151412
15:00+21s465599 0.3 10141722
18:00+20ese116793 0.0 101420
21:00+16ese227499 0.0 101511
14 may, fri
fri1400:00+15e2276100 0.0 101516
03:00+14ese348811 0.0 101552
06:00+15ese398770 0.0 1014194
09:00+21se6106725 0.0 1014687
12:00+25se795388 0.0 10131238
15:00+27se6849100 0.0 10121436
18:00+25se496568 0.0 1011312
21:00+19se4118523 0.0 1011203
15 may, sat
sat1500:00+17se3490100 0.0 101069
03:00+16sse3392100 0.0 101046
06:00+17sse1293100 0.2 101168
09:00+19sw3478100 0.3 1011315
12:00+23ssw346261 0.0 1012952
15:00+25sw4648100 0.0 10122148
18:00+23wsw47613 0.0 1012402
21:00+17nw337716 0.0 101331